Tracking 19706 objects as of 15-Jun-2019
HD Live streaming from Space Station
objects crossing your sky now

DELTA 1 DEB *

Track DELTA 1 DEB * now!
10-day predictions


NORAD ID: 8791
Int'l Code: 1966-087F
Perigee: 1,311.7 km
Apogee: 1,526.0 km
Inclination: 101.4 °
Period: 114.0 minutes
Semi major axis: 7789 km
RCS: 0.0151 m2 (small)
Launch date: October 2, 1966
Source: United States (US)
Launch site: AIR FORCE WESTERN TEST RANGE (AFWTR)

Note: This is SATELLITE DEBRIS
aabbcc
Your satellite tracking list
Your tracking list is empty




NASA's NSSDC Master Catalog

Two Line Element Set (TLE):
1  8791U 66087F   19165.40919897 -.00000008  00000-0  19450-3 0  9992
2  8791 101.3744 140.3797 0137562 238.0288 277.4849 12.62734517421380
Source of the keplerian elements: AFSPC